Weather History for Lumberton, NC

Change the Weather History Date:

Wednesday, October 9, 2013

  Actual Average Record
Temperature  
Mean Temperature 64 °F 66 °F  
Max Temperature 69 °F 77 °F 93 °F (2007)
Min Temperature 58 °F 54 °F 37 °F (2000)
Degree Days  
Heating Degree Days 1 2  
Month to date heating degree days 3 16  
Since 1 July heating degree days 3 25  
Cooling Degree Days 0 3  
Month to date cooling degree days 54 33  
Year to date cooling degree days 1821 1854  
Growing Degree Days 14 (Base 50)    
Moisture  
Dew Point 55 °F    
Average Humidity 77    
Maximum Humidity 87    
Minimum Humidity 67    
Precipitation  
Precipitation T in 0.10 in 0.11 in (2003)
Month to date precipitation 0.16 1.11  
Year to date precipitation 37.54 36.30  
Sea Level Pressure  
Sea Level Pressure 30.08 in    
Wind  
Wind Speed 13 mph (North)    
Max Wind Speed 21 mph    
Max Gust Speed 29 mph    
Visibility 9 miles    
Events Rain    
T = Trace of Precipitation, MM = Missing Value Source: NWS Daily Summary

Daily Weather History Graph

Daily Weather History Graph

Search for Another Location

Airport:

Trip Planner

Search our weather history database for the weather conditions in past years. The results will help you decide how hot, cold, wet, or windy it might be!

Date:

Astronomy

Oct. 09, 2013 Rise Set
Actual Time 7:17 AM EDT 6:49 PM EDT
Civil Twilight 6:51 AM EDT 7:14 PM EDT
Nautical Twilight 6:22 AM EDT 7:43 PM EDT
Astronomical Twilight 5:53 AM EDT 8:12 PM EDT
Moon 12:01 PM EDT (10/9) 10:31 PM EDT (10/9)
Length of Visible Light 12h 22m
Length of Day
11h 31m
Waxing Crescent, 25% of the Moon is Illuminated
Oct 9
Waxing Crescent
Oct 11
First Quarter
Oct 18
Full
Oct 26
Last Quarter
Nov 3
New

Hourly Weather History & Observations

Time (EDT) Temp. Dew Point Humidity Pressure Visibility Wind Dir Wind Speed Gust Speed Precip Events Conditions
12:54 AM 59.0 °F 52.0 °F 78% 30.10 in 10.0 mi NNE 12.7 mph 20.7 mph N/A   Overcast
1:54 AM 59.0 °F 52.0 °F 78% 30.09 in 10.0 mi NNE 13.8 mph - N/A   Overcast
2:22 AM 59.0 °F 51.8 °F 77% 30.09 in 10.0 mi NNE 13.8 mph - N/A   Mostly Cloudy
2:54 AM 59.0 °F 53.1 °F 81% 30.08 in 10.0 mi NNE 11.5 mph 20.7 mph N/A   Mostly Cloudy
3:54 AM 59.0 °F 53.1 °F 81% 30.08 in 10.0 mi NNE 11.5 mph 20.7 mph N/A   Partly Cloudy
4:12 AM 59.0 °F 53.6 °F 82% 30.08 in 10.0 mi North 9.2 mph - N/A   Mostly Cloudy
4:54 AM 59.0 °F 53.1 °F 81% 30.08 in 10.0 mi NNE 11.5 mph 20.7 mph N/A   Mostly Cloudy
5:04 AM 59.0 °F 53.6 °F 82% 30.08 in 10.0 mi North 12.7 mph 20.7 mph N/A   Scattered Clouds
5:54 AM 59.0 °F 53.1 °F 81% 30.08 in 10.0 mi North 9.2 mph - N/A   Overcast
6:39 AM 59.0 °F 51.8 °F 77% 30.09 in 10.0 mi NNE 13.8 mph 19.6 mph N/A   Overcast
6:54 AM 59.0 °F 53.1 °F 81% 30.09 in 8.0 mi North 15.0 mph 20.7 mph N/A   Overcast
7:54 AM 59.0 °F 52.0 °F 78% 30.10 in 10.0 mi North 11.5 mph 19.6 mph 0.00 in   Overcast
8:54 AM 60.1 °F 52.0 °F 75% 30.11 in 10.0 mi NNE 13.8 mph 21.9 mph N/A   Overcast
9:54 AM 63.0 °F 53.1 °F 70% 30.11 in 10.0 mi North 12.7 mph 21.9 mph N/A   Overcast
10:54 AM 64.9 °F 54.0 °F 68% 30.11 in 10.0 mi NNE 18.4 mph 26.5 mph N/A   Overcast
11:28 AM 66.2 °F 55.4 °F 68% 30.12 in 10.0 mi NNE 16.1 mph 24.2 mph N/A   Overcast
11:54 AM 64.9 °F 55.0 °F 70% 30.11 in 10.0 mi NNE 13.8 mph 20.7 mph N/A   Overcast
12:40 PM 64.4 °F 55.4 °F 73% 30.11 in 7.0 mi North 13.8 mph 19.6 mph N/A   Overcast
12:54 PM 64.9 °F 57.0 °F 75% 30.11 in 5.0 mi North 17.3 mph 21.9 mph 0.00 in Rain Light Rain
1:03 PM 62.6 °F 57.2 °F 82% 30.10 in 2.0 mi NNE 10.4 mph - 0.00 in Rain Light Rain
1:13 PM 62.6 °F 59.0 °F 88% 30.10 in 3.0 mi NNE 6.9 mph - 0.00 in Rain Light Rain
1:20 PM 62.6 °F 59.0 °F 88% 30.10 in 4.0 mi NNE 8.1 mph - 0.00 in Rain Light Rain
1:54 PM 66.9 °F 57.9 °F 73% 30.08 in 10.0 mi North 9.2 mph 18.4 mph 0.00 in   Overcast
2:08 PM 68.0 °F 57.2 °F 68% 30.08 in 10.0 mi North 12.7 mph 24.2 mph N/A   Overcast
2:54 PM 68.0 °F 57.0 °F 68% 30.07 in 10.0 mi North 15.0 mph 23.0 mph N/A   Overcast
3:54 PM 66.0 °F 55.9 °F 70% 30.07 in 10.0 mi North 16.1 mph - N/A   Overcast
4:54 PM 64.9 °F 55.9 °F 73% 30.07 in 10.0 mi North 11.5 mph 20.7 mph N/A   Overcast
5:54 PM 64.0 °F 55.0 °F 73% 30.06 in 10.0 mi North 12.7 mph 23.0 mph N/A   Overcast
6:54 PM 63.0 °F 55.0 °F 75% 30.06 in 10.0 mi North 17.3 mph 23.0 mph N/A   Overcast
7:54 PM 62.1 °F 55.0 °F 78% 30.06 in 10.0 mi North 11.5 mph 21.9 mph N/A   Overcast
8:54 PM 61.0 °F 55.0 °F 81% 30.06 in 9.0 mi North 16.1 mph 25.3 mph N/A   Overcast
9:23 PM 60.8 °F 55.4 °F 82% 30.06 in 10.0 mi North 13.8 mph 23.0 mph N/A   Overcast
9:54 PM 59.0 °F 55.9 °F 90% 30.06 in 9.0 mi North 11.5 mph 23.0 mph N/A   Overcast
10:01 PM 59.0 °F 55.4 °F 88% 30.06 in 10.0 mi North 11.5 mph - N/A   Overcast
10:54 PM 59.0 °F 55.0 °F 87% 30.06 in 10.0 mi North 12.7 mph - N/A   Overcast
11:11 PM 59.0 °F 55.4 °F 88% 30.06 in 10.0 mi NNW 13.8 mph - N/A   Overcast
11:54 PM 59.0 °F 55.0 °F 87% 30.05 in 10.0 mi North 9.2 mph 20.7 mph N/A   Overcast